DC7RY Weather Reports


Display with metric or nautical units.
time (UTC)temp
F
wind
direction
speed
MPH
gust
MPH
rain 1hr
in
rain 24hr
in
rain mn
in
humidity
%
barometer
mb
20260505011027 57 0.0 0.0 0.00 0.00 0.00 86 1006.0
20260505010019 57 0.0 0.0 0.00 0.00 0.00 84 1006.1
20260505005027 57 0.0 0.0 0.00 0.00 0.00 82 1006.0
20260505004019 57 0.0 0.0 0.00 0.00 0.00 81 1005.9
20260505003027 58 0.0 0.0 0.00 0.00 0.00 79 1005.9
20260505002019 58 0.0 0.0 0.00 0.00 0.00 79 1006.0
20260505001026 58 0.0 0.0 0.00 0.00 0.00 78 1005.8
20260505000018 58 0.0 0.0 0.00 0.00 0.00 77 1005.8
20260504235026 58 0.0 0.0 0.00 0.00 0.00 78 1005.9
20260504234018 59 0.0 0.0 0.00 0.00 0.00 78 1005.9
20260504233026 59 0.0 0.0 0.00 0.00 0.00 76 1006.0
20260504232018 59 0.0 0.0 0.00 0.00 0.00 74 1006.3
20260504231026 60 0.0 2.0 0.00 0.00 0.00 73 1006.5
20260504230018 60 272 0.0 2.0 0.00 0.00 0.00 73 1006.6
20260504225025 60 0.0 2.0 0.00 0.00 0.00 72 1006.6
20260504224017 61 270 0.0 2.0 0.00 0.00 0.00 72 1006.8
20260504223025 61 272 0.0 2.0 0.00 0.00 0.00 71 1006.8
20260504222017 61 271 0.0 5.0 0.00 0.00 0.00 72 1006.7
20260504221025 61 275 0.0 2.0 0.00 0.00 0.00 72 1006.8
20260504220017 61 0.0 0.0 0.00 0.00 0.00 71 1006.9
20260504215018 61 0.0 0.0 0.00 0.00 0.00 71 1007.0
20260504214025 61 0.0 0.0 0.00 0.00 0.00 72 1006.9
20260504213017 61 0.0 0.0 0.00 0.00 0.00 71 1006.8
20260504212025 62 0.0 0.0 0.00 0.00 0.00 72 1007.0
20260504211001 62 0.0 0.0 0.00 0.00 0.00 70 1007.0
20260504210024 62 282 0.0 2.0 0.00 0.00 0.00 69 1006.9
20260504205032 62 270 0.0 2.0 0.00 0.00 0.00 69 1006.8
20260504204022 62 276 1.0 5.0 0.00 0.00 0.00 69 1006.7
20260504203028 62 273 1.0 2.0 0.00 0.00 0.00 68 1006.7
20260504202020 62 290 0.0 5.0 0.00 0.00 0.00 68 1006.7
20260504201027 63 281 1.0 5.0 0.00 0.00 0.00 67 1006.8
20260504200033 63 307 0.0 2.0 0.00 0.00 0.00 66 1006.8
20260504195031 64 265 0.0 2.0 0.00 0.00 0.00 65 1006.9
20260504194020 64 270 0.0 2.0 0.00 0.00 0.00 64 1006.8
20260504193026 64 274 1.0 5.0 0.00 0.00 0.00 63 1007.0
20260504192031 65 274 1.0 5.0 0.00 0.00 0.00 62 1006.9
20260504191021 65 271 1.0 5.0 0.00 0.00 0.00 62 1007.0
20260504190025 66 275 2.0 8.0 0.00 0.00 0.00 61 1007.0
20260504185017 66 275 2.0 8.0 0.00 0.00 0.00 60 1007.0
20260504184025 67 266 1.0 5.0 0.00 0.00 0.00 58 1006.8
20260504183030 68 278 4.0 10.0 0.00 0.00 0.00 56 1006.8
20260504182023 68 286 2.0 13.0 0.00 0.00 0.00 53 1006.6
20260504181028 68 0.0 0.0 0.00 0.00 0.00 53 1006.5
20260504180027 68 273 0.0 5.0 0.00 0.00 0.00 52 1006.5
20260504175018 68 272 2.0 10.0 0.00 0.00 0.00 53 1006.6
20260504174025 69 270 0.0 2.0 0.00 0.00 0.00 54 1006.6
20260504173032 69 272 1.0 5.0 0.00 0.00 0.00 53 1006.5
20260504172024 70 0.0 0.0 0.00 0.00 0.00 52 1006.5
20260504171031 70 271 1.0 5.0 0.00 0.00 0.00 50 1006.5
20260504151019 76 0.0 0.0 0.00 0.00 0.00 46 1007.4
20260504141021 78 286 1.0 8.0 0.00 0.00 0.00 42 1007.7
20260504081029 63 174 0.0 2.0 0.00 0.00 0.00 56 1010.1
20260504045026 54 0.0 0.0 0.00 0.00 0.00 81 1009.0
20260504044031 54 0.0 0.0 0.00 0.00 0.00 80 1008.8
20260504043022 54 0.0 0.0 0.00 0.00 0.00 80 1008.9
20260504042029 54 0.0 0.0 0.00 0.00 0.00 80 1008.9
20260504041021 54 0.0 0.0 0.00 0.00 0.00 81 1008.7
20260504040029 54 0.0 0.0 0.00 0.00 0.00 80 1008.8
20260504035021 54 0.0 0.0 0.00 0.00 0.00 82 1008.7
20260504034028 54 0.0 0.0 0.00 0.00 0.00 82 1008.7
20260504033019 54 0.0 0.0 0.00 0.00 0.00 83 1008.8
20260504032027 54 0.0 0.0 0.00 0.00 0.00 84 1008.8
20260504031019 54 0.0 0.0 0.00 0.00 0.00 84 1008.9
20260504030026 54 0.0 0.0 0.00 0.00 0.00 82 1008.9
20260504025017 54 0.0 0.0 0.00 0.00 0.00 83 1008.7
20260504024025 54 0.0 0.0 0.00 0.00 0.00 82 1008.6
20260504023030 54 0.0 0.0 0.00 0.00 0.00 82 1008.6
20260504022022 55 0.0 0.0 0.00 0.00 0.00 81 1008.9
20260504021028 55 0.0 0.0 0.00 0.00 0.00 80 1009.0
20260504020019 55 0.0 0.0 0.00 0.00 0.00 80 1009.1
20260504015025 55 0.0 0.0 0.00 0.00 0.00 79 1009.1
20260504014032 55 0.0 0.0 0.00 0.00 0.00 79 1009.1
20260504013024 56 0.0 0.0 0.00 0.00 0.00 79 1009.0
20260504012029 56 0.0 0.0 0.00 0.00 0.00 77 1009.1